| time (UTC) | temp F | wind direction | speed MPH | gust MPH | rain 1hr in | rain 24hr in | rain mn in | humidity % | barometer mb |
| 20260503001020 | 64 | 68 | 0.0 | 2.0 | 0.00 | 0.00 | 0.00 | 87 | 1016.9 |
| 20260503000115 | 64 | 68 | 1.0 | 2.0 | 0.00 | 0.00 | 0.00 | 88 | 1017.1 |
| 20260502235104 | 64 | 68 | 1.0 | 2.0 | 0.00 | 0.00 | 0.00 | 88 | 1017.3 |
| 20260502234054 | 64 | 68 | 1.0 | 2.0 | 0.00 | 0.00 | 0.00 | 88 | 1017.1 |
| 20260502233044 | 64 | 45 | 1.0 | 2.0 | 0.00 | 0.00 | 0.00 | 88 | 1017.1 |
| 20260502232039 | 64 | 45 | 1.0 | 2.0 | 0.00 | 0.00 | 0.00 | 89 | 1017.2 |
| 20260502231028 | 64 | 23 | 1.0 | 2.0 | 0.00 | 0.00 | 0.00 | 89 | 1017.0 |
| 20260502230017 | 64 | 23 | 1.0 | 2.0 | 0.00 | 0.00 | 0.00 | 90 | 1016.9 |
| 20260502225107 | 64 | 23 | 1.0 | 2.0 | 0.00 | 0.00 | 0.00 | 89 | 1016.9 |
| 20260502224056 | 64 | 23 | 0.0 | 2.0 | 0.00 | 0.00 | 0.00 | 89 | 1016.8 |
| 20260502223051 | 64 | 23 | 1.0 | 2.0 | 0.00 | 0.00 | 0.00 | 89 | 1017.0 |
| 20260502222041 | 64 | 27 | 1.0 | 4.0 | 0.00 | 0.00 | 0.00 | 88 | 1017.1 |
| 20260502221032 | 64 | 41 | 2.0 | 4.0 | 0.00 | 0.00 | 0.00 | 88 | 1017.0 |
| 20260502220027 | 64 | 70 | 3.0 | 4.0 | 0.00 | 0.00 | 0.00 | 89 | 1017.1 |
| 20260502215037 | 64 | 64 | 2.0 | 6.0 | 0.00 | 0.00 | 0.00 | 89 | 1017.2 |
| 20260502214108 | 64 | 61 | 2.0 | 4.0 | 0.00 | 0.00 | 0.00 | 89 | 1017.4 |
| 20260502213056 | 64 | 68 | 3.0 | 6.0 | 0.00 | 0.00 | 0.00 | 89 | 1017.3 |
| 20260502212051 | 64 | 85 | 2.0 | 6.0 | 0.00 | 0.00 | 0.00 | 89 | 1017.3 |
| 20260502211042 | 64 | 81 | 3.0 | 7.0 | 0.00 | 0.00 | 0.00 | 89 | 1017.2 |
| 20260502210053 | 64 | 64 | 3.0 | 6.0 | 0.00 | 0.00 | 0.00 | 89 | 1017.4 |
| 20260502205047 | 64 | 90 | 3.0 | 6.0 | 0.00 | 0.00 | 0.00 | 89 | 1017.2 |
| 20260502204018 | 64 | 90 | 3.0 | 7.0 | 0.00 | 0.00 | 0.00 | 88 | 1017.1 |
| 20260502203107 | 64 | 75 | 3.0 | 6.0 | 0.00 | 0.00 | 0.00 | 87 | 1017.1 |
| 20260502202056 | 64 | 72 | 5.0 | 9.0 | 0.00 | 0.00 | 0.00 | 87 | 1017.0 |
| 20260502201051 | 64 | 83 | 4.0 | 8.0 | 0.00 | 0.00 | 0.00 | 87 | 1016.9 |
| 20260502200041 | 64 | 86 | 5.0 | 9.0 | 0.00 | 0.00 | 0.00 | 87 | 1016.9 |
| 20260502195032 | 65 | 87 | 6.0 | 9.0 | 0.00 | 0.00 | 0.00 | 86 | 1016.7 |
| 20260502194027 | 65 | 77 | 3.0 | 7.0 | 0.00 | 0.00 | 0.00 | 86 | 1016.6 |
| 20260502193017 | 65 | 84 | 5.0 | 9.0 | 0.00 | 0.00 | 0.00 | 85 | 1016.6 |
| 20260502192107 | 65 | 64 | 4.0 | 9.0 | 0.00 | 0.00 | 0.00 | 84 | 1016.5 |
| 20260502191056 | 66 | 70 | 4.0 | 8.0 | 0.00 | 0.00 | 0.00 | 84 | 1016.5 |
| 20260502190051 | 66 | 50 | 4.0 | 8.0 | 0.00 | 0.00 | 0.00 | 83 | 1016.5 |
| 20260502185041 | 66 | 70 | 4.0 | 9.0 | 0.00 | 0.00 | 0.00 | 82 | 1016.4 |
| 20260502184030 | 67 | 42 | 4.0 | 9.0 | 0.00 | 0.00 | 0.00 | 80 | 1016.3 |
| 20260502183040 | 67 | 69 | 6.0 | 13.0 | 0.00 | 0.00 | 0.00 | 80 | 1016.2 |
| 20260502182115 | 67 | 79 | 7.0 | 13.0 | 0.00 | 0.00 | 0.00 | 78 | 1016.1 |
| 20260502181104 | 68 | 81 | 5.0 | 11.0 | 0.00 | 0.00 | 0.00 | 76 | 1016.3 |
| 20260502170115 | 70 | 48 | 5.0 | 9.0 | 0.00 | 0.00 | 0.00 | 71 | 1016.8 |
| 20260502164045 | 70 | 69 | 6.0 | 14.0 | 0.00 | 0.00 | 0.00 | 71 | 1016.9 |
| 20260502163039 | 70 | 42 | 5.0 | 11.0 | 0.00 | 0.00 | 0.00 | 70 | 1017.1 |
| 20260502162033 | 71 | 54 | 5.0 | 11.0 | 0.00 | 0.00 | 0.00 | 69 | 1017.0 |
| 20260502161028 | 71 | 73 | 6.0 | 14.0 | 0.00 | 0.01 | 0.00 | 69 | 1017.0 |
| 20260502152102 | 71 | 68 | 5.0 | 11.0 | 0.00 | 0.06 | 0.00 | 70 | 1017.6 |
| 20260502151056 | 71 | 79 | 4.0 | 9.0 | 0.00 | 0.06 | 0.00 | 70 | 1017.9 |
| 20260502123032 | 70 | 83 | 4.0 | 9.0 | 0.00 | 0.06 | 0.00 | 70 | 1019.2 |
| 20260502122028 | 70 | 85 | 5.0 | 11.0 | 0.00 | 0.06 | 0.00 | 72 | 1019.3 |
| 20260502121023 | 70 | 81 | 6.0 | 13.0 | 0.00 | 0.06 | 0.00 | 72 | 1019.3 |
| 20260502115113 | 71 | 70 | 6.0 | 11.0 | 0.00 | 0.06 | 0.00 | 70 | 1019.4 |
| 20260502114107 | 71 | 74 | 3.0 | 7.0 | 0.00 | 0.06 | 0.00 | 71 | 1019.7 |
| 20260502113101 | 71 | 70 | 4.0 | 8.0 | 0.00 | 0.06 | 0.00 | 71 | 1019.7 |
| 20260502112056 | 71 | 47 | 5.0 | 8.0 | 0.00 | 0.06 | 0.00 | 70 | 1019.8 |
| 20260502111051 | 71 | 55 | 4.0 | 8.0 | 0.00 | 0.06 | 0.00 | 70 | 1019.9 |
| 20260502110045 | 71 | 78 | 6.0 | 11.0 | 0.00 | 0.06 | 0.00 | 71 | 1020.1 |
| 20260502105040 | 71 | 95 | 6.0 | 11.0 | 0.00 | 0.06 | 0.00 | 71 | 1020.0 |
| 20260502104055 | 71 | 89 | 7.0 | 14.0 | 0.00 | 0.06 | 0.00 | 71 | 1020.0 |
| 20260502103030 | 71 | 77 | 6.0 | 11.0 | 0.00 | 0.06 | 0.00 | 69 | 1020.2 |
| 20260502102025 | 71 | 76 | 8.0 | 15.0 | 0.00 | 0.06 | 0.00 | 71 | 1020.2 |
| 20260502101020 | 71 | 65 | 5.0 | 13.0 | 0.00 | 0.06 | 0.00 | 71 | 1020.2 |
| 20260502100135 | 70 | 83 | 4.0 | 8.0 | 0.00 | 0.06 | 0.00 | 74 | 1020.4 |
| 20260502091048 | 68 | 90 | 3.0 | 6.0 | 0.00 | 0.06 | 0.00 | 79 | 1020.7 |
| 20260502071044 | 66 | 0.0 | 2.0 | 0.00 | 0.06 | 0.00 | 83 | 1020.6 | |
| 20260502070039 | 65 | 90 | 1.0 | 4.0 | 0.00 | 0.06 | 0.00 | 84 | 1020.7 |
| 20260502065034 | 66 | 0.0 | 2.0 | 0.00 | 0.06 | 0.00 | 84 | 1020.7 | |
| 20260502064029 | 65 | 68 | 0.0 | 2.0 | 0.00 | 0.06 | 0.00 | 84 | 1020.7 |
| 20260502063024 | 65 | 45 | 1.0 | 2.0 | 0.00 | 0.06 | 0.00 | 84 | 1020.7 |
| 20260502062019 | 65 | 0.0 | 2.0 | 0.00 | 0.06 | 0.00 | 84 | 1020.7 | |
| 20260502061114 | 65 | 68 | 0.0 | 2.0 | 0.00 | 0.06 | 0.00 | 85 | 1020.7 |
| 20260502060109 | 65 | 0.0 | 0.0 | 0.00 | 0.06 | 0.00 | 85 | 1020.6 | |
| 20260502055104 | 64 | 68 | 0.0 | 2.0 | 0.00 | 0.06 | 0.00 | 85 | 1020.5 |
| 20260502054057 | 64 | 0.0 | 2.0 | 0.00 | 0.06 | 0.00 | 86 | 1020.4 | |
| 20260502053052 | 64 | 0.0 | 2.0 | 0.00 | 0.06 | 0.00 | 86 | 1020.5 | |
| 20260502052047 | 64 | 90 | 0.0 | 2.0 | 0.00 | 0.06 | 0.00 | 86 | 1020.5 |
| 20260502051041 | 64 | 0.0 | 0.0 | 0.00 | 0.06 | 0.00 | 86 | 1020.5 | |
| 20260502050057 | 64 | 90 | 0.0 | 2.0 | 0.00 | 0.06 | 0.00 | 86 | 1020.4 |
| 20260502045032 | 64 | 0.0 | 0.0 | 0.00 | 0.06 | 0.00 | 86 | 1020.6 | |
| 20260502044026 | 64 | 0.0 | 0.0 | 0.00 | 0.06 | 0.00 | 87 | 1020.4 | |
| 20260502043021 | 64 | 0.0 | 2.0 | 0.00 | 0.06 | 0.00 | 87 | 1020.5 | |
| 20260502042115 | 64 | 68 | 0.0 | 2.0 | 0.00 | 0.06 | 0.00 | 87 | 1020.4 |
| 20260502041130 | 64 | 0.0 | 2.0 | 0.00 | 0.06 | 0.00 | 87 | 1020.5 | |
| 20260502040105 | 64 | 0.0 | 2.0 | 0.00 | 0.06 | 0.00 | 88 | 1020.5 | |
| 20260502035058 | 64 | 0.0 | 0.0 | 0.00 | 0.06 | 0.00 | 88 | 1020.7 | |
| 20260502034053 | 64 | 0.0 | 0.0 | 0.00 | 0.06 | 0.00 | 88 | 1020.8 | |
| 20260502033049 | 64 | 0.0 | 2.0 | 0.00 | 0.06 | 0.00 | 88 | 1020.8 | |
| 20260502032043 | 64 | 0.0 | 0.0 | 0.00 | 0.06 | 0.00 | 88 | 1020.8 | |
| 20260502031038 | 64 | 68 | 0.0 | 2.0 | 0.00 | 0.06 | 0.00 | 88 | 1020.8 |
| 20260502030033 | 64 | 68 | 0.0 | 2.0 | 0.00 | 0.06 | 0.00 | 88 | 1020.8 |
| 20260502025048 | 64 | 0.0 | 2.0 | 0.00 | 0.06 | 0.00 | 88 | 1020.9 | |
| 20260502024023 | 64 | 90 | 1.0 | 2.0 | 0.00 | 0.06 | 0.00 | 89 | 1020.9 |
| 20260502023018 | 64 | 90 | 2.0 | 4.0 | 0.00 | 0.06 | 0.00 | 89 | 1020.8 |
| 20260502022113 | 64 | 96 | 2.0 | 4.0 | 0.00 | 0.06 | 0.00 | 89 | 1020.7 |
| 20260502021108 | 64 | 86 | 2.0 | 4.0 | 0.00 | 0.06 | 0.00 | 89 | 1020.8 |
| 20260502020101 | 64 | 78 | 2.0 | 4.0 | 0.00 | 0.06 | 0.00 | 89 | 1020.7 |
| 20260502015115 | 64 | 68 | 1.0 | 2.0 | 0.00 | 0.06 | 0.00 | 89 | 1020.8 |
| 20260502014051 | 64 | 68 | 1.0 | 2.0 | 0.00 | 0.06 | 0.00 | 89 | 1021.2 |
| 20260502013045 | 64 | 68 | 0.0 | 2.0 | 0.00 | 0.06 | 0.00 | 89 | 1021.1 |
| 20260502012040 | 64 | 68 | 1.0 | 2.0 | 0.00 | 0.06 | 0.00 | 88 | 1021.2 |
| 20260502011055 | 64 | 56 | 2.0 | 2.0 | 0.00 | 0.06 | 0.00 | 88 | 1021.3 |
| 20260502010030 | 64 | 49 | 1.0 | 2.0 | 0.00 | 0.06 | 0.00 | 88 | 1021.3 |
| 20260502005025 | 64 | 45 | 1.0 | 2.0 | 0.00 | 0.06 | 0.00 | 89 | 1021.5 |
| 20260502004019 | 64 | 23 | 1.0 | 2.0 | 0.00 | 0.06 | 0.00 | 89 | 1021.5 |
| 20260502003115 | 64 | 34 | 0.0 | 2.0 | 0.00 | 0.06 | 0.00 | 89 | 1021.6 |
| 20260502002110 | 64 | 50 | 2.0 | 2.0 | 0.00 | 0.06 | 0.00 | 89 | 1021.9 |
| 20260502001104 | 64 | 58 | 2.0 | 4.0 | 0.00 | 0.06 | 0.00 | 89 | 1022.1 |